Regional Weather Roundup
Issued by NWS

Home | Current Version | Previous Version | Graphics & Text | Print | Product List | Glossary On
Versions: 1 2 3 4 5 6 7 8 9 10 11 12 13 14 15 16 17 18 19 20 21 22 23 24 25 26 27 28 29 30 31 32 33 34 35 36 37 38 39 40 41 42 43 44 45 46 47 48 49 50
000
ASUS43 KOAX 070110
RWRNE

WEATHER ROUNDUP FOR NEBRASKA
NATIONAL WEATHER SERVICE OMAHA NE
700 PM CST SAT FEB 06 2016

NOTES: SATELLITE DATA IS BEING USED TO AUGMENT CLOUD COVER ABOVE
       12000 FEET.
       "FAIR" INDICATES FEW OR NO CLOUDS BELOW 12,000 FEET WITH NO
       SIGNIFICANT WEATHER AND/OR OBSTRUCTIONS TO VISIBILITY.

  * THESE STATIONS DO NOT REPORT WEATHER SUCH AS RAIN...SNOW OR FOG.

NEZ001>004-019>022-054>056-070200-
NEBRASKA PANHANDLE

CITY           SKY/WX    TMP DP  RH WIND       PRES   REMARKS
SCOTTSBLUFF    CLOUDY    40  24  53 W23G35    30.00S WCI  30
ALLIANCE       CLOUDY    37  26  64 N14       29.97R WCI  28
CHADRON        CLOUDY    42  26  53 NW20G25   30.00R
KIMBALL        CLOUDY    39  27  61 W15       30.03S WCI  31
SIDNEY         CLOUDY    41  28  60 W20       30.01S
$$

NEZ057>060-069>072-079>082-070200-
SOUTHWEST NEBRASKA

CITY           SKY/WX    TMP DP  RH WIND       PRES   REMARKS
NORTH PLATTE   CLOUDY    35  25  66 W9        29.98S WCI  28
IMPERIAL       CLOUDY    33  25  72 W8        30.01F WCI  26
LEXINGTON      CLOUDY    37  25  61 SW13      29.98F WCI  29
MCCOOK         PTCLDY    36  26  67 W9        30.02F WCI  29
OGALLALA       CLOUDY    30  21  69 W6        29.99S WCI  24
$$

NEZ005>010-023>029-035>040-094-070200-
NORTH CENTRAL NEBRASKA

CITY           SKY/WX    TMP DP  RH WIND       PRES   REMARKS
VALENTINE      CLOUDY    38  29  70 W12       29.89R WCI  30
AINSWORTH      CLEAR     37  29  71 SW10      29.88R WCI  30
BROKEN BOW     CLOUDY    36  27  69 W12       29.94F WCI  28
O`NEILL        CLOUDY    38  30  71 SW9       29.88S WCI  32
ORD            CLOUDY    35  28  75 SW16      29.92F WCI  25
THEDFORD       CLOUDY    38  30  72 W9        29.92S WCI  32
$$

NEZ041-046>049-061>064-073>077-083>087-070200-
SOUTH CENTRAL NEBRASKA

CITY           SKY/WX    TMP DP  RH WIND       PRES   REMARKS
GRAND ISLAND   CLOUDY    34  24  67 SW23      29.98F WCI  22
AURORA         CLOUDY    34  26  74 SW17      29.99F WCI  23
HASTINGS       CLOUDY    35  26  69 SW8       30.01R WCI  29
HEBRON         CLOUDY    36  27  70 SW15      30.05F WCI  26
HOLDREGE       CLOUDY    35  28  75 SW13      30.00S WCI  26
YORK           PTCLDY    34  27  75 SW18      30.00R WCI  23
$$

NEZ011>018-030>034-042>045-070200-
NORTHEAST NEBRASKA

CITY           SKY/WX    TMP DP  RH WIND       PRES   REMARKS
NORFOLK        CLOUDY    35  27  72 SW14      29.90F WCI  26
ALBION         CLOUDY    37  28  72 SW12      29.92F WCI  29
BLAIR          PTCLDY    38  26  63 S20       29.98R WCI  27
COLUMBUS *     PTCLDY    36  19  51 SW12      29.98S WCI  27
FREMONT        CLOUDY    35  24  65 SW12      30.00R WCI  27
TEKAMAH        CLOUDY    34  26  72 SW17      29.98R WCI  23
WAYNE          CLOUDY    32  27  81 SW9       29.91F WCI  24
$$

NEZ050>053-065>068-078-088>093-070200-
SOUTHEAST NEBRASKA

CITY           SKY/WX    TMP DP  RH WIND       PRES   REMARKS
LINCOLN        PTCLDY    37  26  64 SW17      30.02F WCI  27
OMAHA EPPLEY   MOCLDY    40  28  62 S12       30.01F WCI  33
BEATRICE       CLOUDY    38  28  68 SW10      30.04F WCI  31
FALLS CITY     CLOUDY    42  27  55 S12       30.08F
NEBRASKA CITY  CLOUDY    38  30  72 S14       30.03F WCI  29
PLATTSMOUTH    PTCLDY    37  30  75 S17       30.00F WCI  28
$$

NEZ044-045-051>053-067-070200-
OMAHA AREA

CITY           SKY/WX    TMP DP  RH WIND       PRES   REMARKS
OMAHA EPPLEY   MOCLDY    40  28  62 S12       30.01F WCI  33
BLAIR          PTCLDY    38  26  63 S20       29.98R WCI  27
FREMONT        CLOUDY    35  24  65 SW12      30.00R WCI  27
MILLARD        PTCLDY    40  28  62 CALM      30.02R
OFFUTT AFB     CLOUDY    38  30  73 S12       30.00F WCI  31
PLATTSMOUTH    PTCLDY    37  30  75 S17       30.00F WCI  28
WAHOO          FAIR      36  26  67 SW16      29.99R WCI  26
$$



USA.gov is the U.S. government's official web portal to all federal, state and local government web resources and services.